This is the latest recevied weather packets stored in our database for station/object KA9CBS. If no packets are shown the sender has not sent any weather packets the latest 10 day(s).
| Time | Temp. | Humidity | Pressure | Rain* | Wind** | Luminosity | Snow |
|---|---|---|---|---|---|---|---|
| 1787404448 | 23.89° C | 90% | 1016.9 hPa | 0 mm | - | 145 W/m² | - |
| 1787404143 | 23.33° C | 91% | 1016.8 hPa | 0 mm | - | 131 W/m² | - |
| 1787403839 | 22.78° C | 92% | 1016.8 hPa | 0 mm | - | 98 W/m² | - |
| 1787403538 | 22.78° C | 92% | 1016.6 hPa | 0 mm | - | 80 W/m² | - |
| 1787403233 | 22.78° C | 93% | 1016.9 hPa | 0 mm | - | 75 W/m² | - |
| 1787402930 | 22.22° C | 94% | 1016.8 hPa | 0 mm | - | 71 W/m² | - |
| 1787402625 | 21.67° C | 95% | 1016.6 hPa | 0 mm | - | 67 W/m² | - |
| 1787402324 | 21.67° C | 95% | 1016.4 hPa | 0 mm | - | 64 W/m² | - |
| 1787402019 | 21.11° C | 95% | 1016.5 hPa | 0 mm | - | 56 W/m² | - |
| 1787401715 | 21.11° C | 95% | 1016.6 hPa | 0 mm | - | 48 W/m² | - |
| 1787401411 | 21.11° C | 95% | 1016.7 hPa | 0 mm | - | 39 W/m² | - |
| 1787401106 | 20.56° C | 96% | 1016.8 hPa | 0 mm | - | 29 W/m² | - |
| 1787400802 | 20.56° C | 96% | 1016.9 hPa | 0 mm | - | 24 W/m² | - |
| 1787400501 | 20.56° C | 97% | 1017.2 hPa | 0 mm | - | 26 W/m² | - |
| 1787400198 | 20° C | 97% | 1016.9 hPa | 0 mm | - | 29 W/m² | - |
| 1787399894 | 20° C | 98% | 1017.3 hPa | 0 mm | - | 24 W/m² | - |
| 1787399590 | 20° C | 99% | 1017.2 hPa | 0 mm | - | 21 W/m² | - |
| 1787399289 | 19.44° C | 99% | 1017.3 hPa | 0 mm | - | 16 W/m² | - |
| 1787398984 | 19.44° C | 99% | 1017.2 hPa | 0 mm | - | 12 W/m² | - |
| 1787398679 | 18.89° C | 99% | 1017.2 hPa | 0 mm | - | 9 W/m² | - |
| 1787398376 | 18.89° C | 98% | 1017.2 hPa | 0 mm | - | 6 W/m² | - |
| 1787398071 | 18.89° C | 98% | 1016.9 hPa | 0 mm | - | 3 W/m² | - |
| 1787397770 | 18.89° C | 98% | 1017.1 hPa | 0 mm | - | 2 W/m² | - |
| 1787397465 | 18.89° C | 98% | 1017.2 hPa | 0 mm | - | 0 W/m² | - |
| 1787397161 | 18.89° C | 97% | 1017.2 hPa | 0 mm | - | 0 W/m² | - |
* Rain latest hour (hover to see other rain measurements)
** Current wind speed in m/s (hover to see current wind gust speed)